• In Hungary
  • List of Countries
  • For 7 days
  • Water Temperature
  • Satellite Maps
  • Weather Map
  • News
  • Weather Widgets
  • user-avatar
    Login

    Hourly Weather Pavlikovo

    Today, 21 July, Saturday

    Time Temperature Precipitation Wind Pressure Humidity
    00:00 +19°C° 0 mm 1 mps 731 mmHg 98%
    01:00 +19°C° 0 mm 1 mps 731 mmHg 98%
    02:00 +19°C° 0 mm 1 mps 731 mmHg 98%
    03:00 +19°C° 0.1 mm 1 mps 731 mmHg 98%
    04:00 +19°C° 0.1 mm 1 mps 731 mmHg 98%
    05:00 +20°C° 0.1 mm 1 mps 731 mmHg 98%
    06:00 +20°C° 0 mm 2 mps 732 mmHg 96%
    07:00 +21°C° 0 mm 2 mps 732 mmHg 93%
    08:00 +23°C° 0 mm 2 mps 732 mmHg 90%
    09:00 +24°C° 0.5 mm 2 mps 732 mmHg 84%
    10:00 +26°C° 0.5 mm 2 mps 732 mmHg 79%
    11:00 +27°C° 0.5 mm 2 mps 732 mmHg 73%
    12:00 +27°C° 0.7 mm 3 mps 732 mmHg 75%
    13:00 +27°C° 0.7 mm 3 mps 732 mmHg 76%
    14:00 +27°C° 0.7 mm 3 mps 732 mmHg 77%
    15:00 +26°C° 0 mm 3 mps 732 mmHg 77%
    16:00 +26°C° 0 mm 3 mps 732 mmHg 76%
    17:00 +26°C° 0 mm 2 mps 733 mmHg 76%
    18:00 +25°C° 0.2 mm 2 mps 733 mmHg 81%
    19:00 +24°C° 0.2 mm 2 mps 733 mmHg 86%
    20:00 +21°C° 0.2 mm 2 mps 733 mmHg 91%
    21:00 +21°C° 0.5 mm 2 mps 733 mmHg 93%
    22:00 +20°C° 0.5 mm 2 mps 733 mmHg 95%
    23:00 +19°C° 0.5 mm 2 mps 733 mmHg 96%

    Tomorrow, 22 July, Sunday

    Time Temperature Precipitation Wind Pressure Humidity
    00:00 +19°C° 0.3 mm 2 mps 733 mmHg 97%
    01:00 +19°C° 0.3 mm 2 mps 733 mmHg 97%
    02:00 +19°C° 0.3 mm 2 mps 733 mmHg 98%
    03:00 +19°C° 0.8 mm 2 mps 733 mmHg 98%
    04:00 +19°C° 0.8 mm 2 mps 733 mmHg 98%
    05:00 +19°C° 0.8 mm 2 mps 733 mmHg 98%
    06:00 +19°C° 0.3 mm 2 mps 734 mmHg 97%
    07:00 +20°C° 0.3 mm 3 mps 734 mmHg 96%
    08:00 +20°C° 0.3 mm 3 mps 734 mmHg 95%
    09:00 +20°C° 0 mm 3 mps 734 mmHg 94%
    10:00 +20°C° 0 mm 3 mps 734 mmHg 93%
    11:00 +20°C° 0 mm 3 mps 734 mmHg 93%
    12:00 +20°C° 0.1 mm 3 mps 734 mmHg 91%
    13:00 +20°C° 0.1 mm 3 mps 734 mmHg 90%
    14:00 +21°C° 0.1 mm 3 mps 735 mmHg 89%
    15:00 +21°C° 0.1 mm 3 mps 735 mmHg 89%
    16:00 +21°C° 0.1 mm 3 mps 735 mmHg 89%
    17:00 +21°C° 0.1 mm 3 mps 735 mmHg 89%
    18:00 +20°C° 0 mm 3 mps 735 mmHg 90%
    19:00 +20°C° 0 mm 2 mps 735 mmHg 91%
    20:00 +19°C° 0 mm 2 mps 735 mmHg 93%
    21:00 +19°C° 0.1 mm 2 mps 735 mmHg 93%
    22:00 +19°C° 0.1 mm 2 mps 735 mmHg 94%
    23:00 +19°C° 0.1 mm 2 mps 735 mmHg 95%

    Day after tomorrow, 23 July, Monday

    Time Temperature Precipitation Wind Pressure Humidity
    00:00 +18°C° 0 mm 2 mps 735 mmHg 96%
    01:00 +18°C° 0 mm 2 mps 735 mmHg 96%
    02:00 +18°C° 0 mm 2 mps 735 mmHg 97%
    03:00 +17°C° 0 mm 2 mps 735 mmHg 97%
    04:00 +17°C° 0 mm 2 mps 735 mmHg 97%
    05:00 +17°C° 0 mm 3 mps 735 mmHg 97%
    06:00 +17°C° 0 mm 3 mps 735 mmHg 95%
    07:00 +18°C° 0 mm 3 mps 736 mmHg 92%
    08:00 +18°C° 0 mm 3 mps 736 mmHg 90%
    09:00 +19°C° 0 mm 3 mps 736 mmHg 87%
    10:00 +20°C° 0 mm 4 mps 736 mmHg 84%
    11:00 +20°C° 0 mm 4 mps 736 mmHg 80%
    12:00 +21°C° 0.2 mm 3 mps 736 mmHg 80%
    13:00 +21°C° 0.2 mm 3 mps 736 mmHg 79%
    14:00 +21°C° 0.2 mm 3 mps 736 mmHg 79%
    15:00 +21°C° 0.4 mm 3 mps 736 mmHg 81%
    16:00 +21°C° 0.4 mm 3 mps 736 mmHg 83%
    17:00 +21°C° 0.4 mm 3 mps 736 mmHg 85%
    18:00 +20°C° 0.2 mm 3 mps 736 mmHg 88%
    19:00 +19°C° 0.2 mm 3 mps 736 mmHg 91%
    20:00 +18°C° 0.2 mm 2 mps 736 mmHg 94%
    21:00 +17°C° 0 mm 2 mps 736 mmHg 95%
    22:00 +17°C° 0 mm 2 mps 736 mmHg 96%
    23:00 +16°C° 0 mm 2 mps 736 mmHg 97%

    24 July, Tuesday

    Time Temperature Precipitation Wind Pressure Humidity
    00:00 +16°C° 0 mm 2 mps 736 mmHg 97%
    01:00 +16°C° 0 mm 2 mps 736 mmHg 97%
    02:00 +15°C° 0 mm 2 mps 736 mmHg 97%
    03:00 +14°C° 0 mm 3 mps 736 mmHg 97%
    04:00 +14°C° 0 mm 3 mps 736 mmHg 97%
    05:00 +14°C° 0 mm 3 mps 736 mmHg 97%
    06:00 +14°C° 0.1 mm 3 mps 736 mmHg 97%
    07:00 +16°C° 0.1 mm 3 mps 736 mmHg 97%
    08:00 +16°C° 0.1 mm 3 mps 736 mmHg 96%
    09:00 +17°C° 0.2 mm 3 mps 736 mmHg 95%
    10:00 +17°C° 0.2 mm 3 mps 736 mmHg 94%
    11:00 +18°C° 0.2 mm 3 mps 737 mmHg 93%
    12:00 +18°C° 0.6 mm 3 mps 737 mmHg 94%
    13:00 +18°C° 0.6 mm 3 mps 737 mmHg 95%
    14:00 +19°C° 0.6 mm 3 mps 737 mmHg 95%
    15:00 +19°C° 0.6 mm 3 mps 737 mmHg 95%
    16:00 +19°C° 0.6 mm 3 mps 737 mmHg 95%
    17:00 +19°C° 0.6 mm 2 mps 737 mmHg 94%
    18:00 +19°C° 0.3 mm 2 mps 737 mmHg 95%
    19:00 +19°C° 0.3 mm 2 mps 737 mmHg 96%
    20:00 +19°C° 0.3 mm 2 mps 737 mmHg 98%
    21:00 +19°C° 0.3 mm 2 mps 737 mmHg 98%
    22:00 +18°C° 0.3 mm 2 mps 737 mmHg 98%
    23:00 +18°C° 0.3 mm 2 mps 737 mmHg 98%

    25 July, Wednesday

    Time Temperature Precipitation Wind Pressure Humidity
    00:00 +18°C° 0.5 mm 2 mps 737 mmHg 98%
    01:00 +18°C° 0.5 mm 2 mps 737 mmHg 98%
    02:00 +18°C° 0.5 mm 2 mps 737 mmHg 98%
    03:00 +19°C° 0.1 mm 3 mps 738 mmHg 98%
    04:00 +19°C° 0.1 mm 3 mps 738 mmHg 98%
    05:00 +19°C° 0.1 mm 3 mps 738 mmHg 98%
    06:00 +19°C° 0.2 mm 3 mps 739 mmHg 96%
    07:00 +20°C° 0.2 mm 3 mps 739 mmHg 94%
    08:00 +20°C° 0.2 mm 4 mps 739 mmHg 93%
    09:00 +20°C° 0 mm 3 mps 740 mmHg 89%
    10:00 +21°C° 0 mm 3 mps 740 mmHg 86%
    11:00 +21°C° 0 mm 3 mps 740 mmHg 82%
    12:00 +22°C° 0 mm 3 mps 740 mmHg 77%
    13:00 +23°C° 0 mm 4 mps 740 mmHg 72%
    14:00 +25°C° 0 mm 4 mps 740 mmHg 66%
    15:00 +26°C° 0 mm 4 mps 740 mmHg 65%
    16:00 +26°C° 0 mm 3 mps 740 mmHg 64%
    17:00 +27°C° 0 mm 3 mps 740 mmHg 63%
    18:00 +25°C° 0 mm 3 mps 740 mmHg 68%
    19:00 +22°C° 0 mm 3 mps 740 mmHg 73%
    20:00 +20°C° 0 mm 3 mps 740 mmHg 78%
    21:00 +20°C° 0 mm 3 mps 740 mmHg 78%
    22:00 +19°C° 0 mm 3 mps 741 mmHg 78%
    23:00 +18°C° 0 mm 3 mps 741 mmHg 78%

    26 July, Thursday

    Time Temperature Precipitation Wind Pressure Humidity
    00:00 +18°C° 0 mm 3 mps 741 mmHg 79%
    01:00 +17°C° 0 mm 2 mps 741 mmHg 81%
    02:00 +16°C° 0 mm 2 mps 741 mmHg 82%
    03:00 +17°C° 0 mm 2 mps 741 mmHg 83%
    04:00 +17°C° 0 mm 2 mps 741 mmHg 84%
    05:00 +17°C° 0 mm 2 mps 742 mmHg 85%
    06:00 +19°C° 0 mm 3 mps 742 mmHg 80%
    07:00 +21°C° 0 mm 3 mps 742 mmHg 75%
    08:00 +23°C° 0 mm 4 mps 743 mmHg 70%
    09:00 +25°C° 0 mm 4 mps 743 mmHg 64%
    10:00 +26°C° 0 mm 4 mps 743 mmHg 59%
    11:00 +27°C° 0 mm 5 mps 743 mmHg 54%
    12:00 +28°C° 0 mm 5 mps 743 mmHg 52%
    13:00 +28°C° 0 mm 4 mps 743 mmHg 51%
    14:00 +29°C° 0 mm 4 mps 743 mmHg 50%
    15:00 +28°C° 0 mm 4 mps 743 mmHg 53%
    16:00 +28°C° 0 mm 3 mps 743 mmHg 57%
    17:00 +28°C° 0 mm 3 mps 743 mmHg 61%
    18:00 +26°C° 0 mm 2 mps 743 mmHg 68%
    19:00 +24°C° 0 mm 2 mps 743 mmHg 75%
    20:00 +21°C° 0 mm 2 mps 743 mmHg 83%
    21:00 +20°C° 0 mm 2 mps 743 mmHg 85%
    22:00 +20°C° 0 mm 2 mps 743 mmHg 87%
    23:00 +19°C° 0 mm 2 mps 743 mmHg 89%
    Show more